Year,Month,Day,Hour,Minute,Value (Times are PST for temperature in C)
2012,06,01,00,00,10.90
2012,06,01,00,01,10.90
2012,06,01,00,02,10.90
2012,06,01,00,03,10.90
2012,06,01,00,04,10.90
2012,06,01,00,05,10.90
2012,06,01,00,06,10.90
2012,06,01,00,07,11.00
2012,06,01,00,08,11.00
2012,06,01,00,09,11.00
2012,06,01,00,10,11.00
2012,06,01,00,11,11.00
2012,06,01,00,12,11.10
2012,06,01,00,17,11.20
2012,06,01,00,18,11.20
2012,06,01,00,19,11.10
2012,06,01,00,20,11.10
2012,06,01,00,21,11.10
2012,06,01,00,22,11.10
2012,06,01,00,23,11.10
2012,06,01,00,24,11.10
2012,06,01,00,25,11.10
2012,06,01,00,26,11.10
2012,06,01,00,27,11.10
2012,06,01,00,28,11.10
2012,06,01,00,29,11.10
2012,06,01,00,30,11.10
2012,06,01,00,31,11.00
2012,06,01,00,32,11.10
2012,06,01,00,33,11.00
2012,06,01,00,34,11.10
2012,06,01,00,35,11.10
2012,06,01,00,36,11.10
2012,06,01,00,37,11.10
2012,06,01,00,38,11.10
2012,06,01,00,39,11.10
2012,06,01,00,40,11.10
2012,06,01,00,41,11.10
2012,06,01,00,42,11.10
2012,06,01,00,43,11.10
2012,06,01,00,44,11.10
2012,06,01,00,45,11.10
2012,06,01,00,46,11.10
2012,06,01,00,47,11.10
2012,06,01,00,48,11.10
2012,06,01,00,49,11.10
2012,06,01,00,50,11.10
2012,06,01,00,51,11.10
2012,06,01,00,52,11.10
2012,06,01,00,53,11.10
2012,06,01,00,54,11.20
2012,06,01,00,55,11.20
2012,06,01,00,56,11.20
2012,06,01,00,57,11.20
2012,06,01,00,58,11.20
2012,06,01,00,59,11.20
2012,06,01,01,00,11.20
2012,06,01,01,01,11.20
2012,06,01,01,02,11.20
2012,06,01,01,03,11.20
2012,06,01,01,04,11.20
2012,06,01,01,05,11.20
2012,06,01,01,06,11.20
2012,06,01,01,07,11.20
2012,06,01,01,08,11.20
2012,06,01,01,09,11.20
2012,06,01,01,10,11.20
2012,06,01,01,11,11.20
2012,06,01,01,12,11.20
2012,06,01,01,13,11.20
2012,06,01,01,14,11.20
2012,06,01,01,15,11.20
2012,06,01,01,16,11.20
2012,06,01,01,17,11.20
2012,06,01,01,18,11.20
2012,06,01,01,19,11.20
2012,06,01,01,20,11.20
2012,06,01,01,21,11.20
2012,06,01,01,22,11.20
2012,06,01,01,23,11.20
2012,06,01,01,24,11.20
2012,06,01,01,25,11.20
2012,06,01,01,26,11.20
2012,06,01,01,27,11.20
2012,06,01,01,28,11.20
2012,06,01,01,29,11.20
2012,06,01,01,30,11.20
2012,06,01,01,31,11.20
2012,06,01,01,32,11.20
2012,06,01,01,33,11.20
2012,06,01,01,34,11.20
2012,06,01,01,35,11.20
2012,06,01,01,36,11.20
2012,06,01,01,37,11.20
2012,06,01,01,38,11.20
2012,06,01,01,39,11.20
2012,06,01,01,40,11.20
2012,06,01,01,41,11.30
2012,06,01,01,42,11.30
2012,06,01,01,43,11.30
2012,06,01,01,44,11.20
2012,06,01,01,45,11.20
2012,06,01,01,46,11.20
2012,06,01,01,47,11.20
2012,06,01,01,48,11.20
2012,06,01,01,49,11.20
2012,06,01,01,50,11.20
2012,06,01,01,51,11.20
2012,06,01,01,52,11.20
2012,06,01,01,53,11.20
2012,06,01,01,54,11.20
2012,06,01,01,55,11.20
2012,06,01,01,56,11.10
2012,06,01,01,57,11.20
2012,06,01,01,58,11.10
2012,06,01,01,59,11.10
2012,06,01,02,00,11.10
2012,06,01,02,01,11.10
2012,06,01,02,02,11.10
2012,06,01,02,03,11.10
2012,06,01,02,04,11.10
2012,06,01,02,05,11.10
2012,06,01,02,06,11.10
2012,06,01,02,07,11.10
2012,06,01,02,08,11.10
2012,06,01,02,09,11.10
2012,06,01,02,10,11.10
2012,06,01,02,11,11.10
2012,06,01,02,12,11.10
2012,06,01,02,13,11.10
2012,06,01,02,14,11.10
2012,06,01,02,15,11.10
2012,06,01,02,16,11.10
2012,06,01,02,17,11.10
2012,06,01,02,18,11.10
2012,06,01,02,19,11.10
2012,06,01,02,20,11.10
2012,06,01,02,21,11.10
2012,06,01,02,22,11.10
2012,06,01,02,23,11.10
2012,06,01,02,24,11.10
2012,06,01,02,25,11.10
2012,06,01,02,26,11.10
2012,06,01,02,27,11.10
2012,06,01,02,28,11.10
2012,06,01,02,29,11.10
2012,06,01,02,30,11.10
2012,06,01,02,31,11.10
2012,06,01,02,32,11.10
2012,06,01,02,33,11.10
2012,06,01,02,34,11.10
2012,06,01,02,35,11.10
2012,06,01,02,36,11.10
2012,06,01,02,37,11.10
2012,06,01,02,38,11.10
2012,06,01,02,39,11.10
2012,06,01,02,40,11.10
2012,06,01,02,41,11.10
2012,06,01,02,42,11.10
2012,06,01,02,43,11.10
2012,06,01,02,44,11.10
2012,06,01,02,45,11.10
2012,06,01,02,46,11.10
2012,06,01,02,47,11.10
2012,06,01,02,48,11.10
2012,06,01,02,49,11.10
2012,06,01,02,50,11.10
2012,06,01,02,51,11.10
2012,06,01,02,52,11.10
2012,06,01,02,53,11.10
2012,06,01,02,54,11.10
2012,06,01,02,55,11.10
2012,06,01,02,56,11.10
2012,06,01,02,57,11.10
2012,06,01,02,58,11.10
2012,06,01,02,59,11.10
2012,06,01,03,00,11.10
2012,06,01,03,01,11.10
2012,06,01,03,02,11.10
2012,06,01,03,03,11.10
2012,06,01,03,04,11.10
2012,06,01,03,05,11.10
2012,06,01,03,06,11.10
2012,06,01,03,07,11.10
2012,06,01,03,08,11.10
2012,06,01,03,09,11.10
2012,06,01,03,10,11.10
2012,06,01,03,11,11.10
2012,06,01,03,12,11.10
2012,06,01,03,13,11.20
2012,06,01,03,14,11.20
2012,06,01,03,15,11.20
2012,06,01,03,16,11.20
2012,06,01,03,17,11.20
2012,06,01,03,18,11.20
2012,06,01,03,19,11.20
2012,06,01,03,20,11.20
2012,06,01,03,21,11.20
2012,06,01,03,22,11.20
2012,06,01,03,23,11.20
2012,06,01,03,24,11.20
2012,06,01,03,25,11.20
2012,06,01,03,26,11.20
2012,06,01,03,27,11.20
2012,06,01,03,28,11.20
2012,06,01,03,29,11.20
2012,06,01,03,30,11.20
2012,06,01,03,31,11.20
2012,06,01,03,32,11.20
2012,06,01,03,33,11.20
2012,06,01,03,34,11.20
2012,06,01,03,35,11.20
2012,06,01,03,36,11.20
2012,06,01,03,37,11.20
2012,06,01,03,38,11.20
2012,06,01,03,39,11.20
2012,06,01,03,40,11.20
2012,06,01,03,41,11.20
2012,06,01,03,42,11.20
2012,06,01,03,43,11.30
2012,06,01,03,44,11.30
2012,06,01,03,45,11.30
2012,06,01,03,46,11.30
2012,06,01,03,47,11.30
2012,06,01,03,48,11.30
2012,06,01,03,49,11.30
2012,06,01,03,50,11.30
2012,06,01,03,51,11.30
2012,06,01,03,52,11.30
2012,06,01,03,53,11.30
2012,06,01,03,54,11.30
2012,06,01,03,55,11.30
2012,06,01,03,56,11.30
2012,06,01,03,57,11.30
2012,06,01,03,58,11.30
2012,06,01,03,59,11.30
2012,06,01,04,00,11.30
2012,06,01,04,01,11.30
2012,06,01,04,02,11.30
2012,06,01,04,03,11.30
2012,06,01,04,04,11.30
2012,06,01,04,05,11.30
2012,06,01,04,06,11.30
2012,06,01,04,07,11.30
2012,06,01,04,08,11.30
2012,06,01,04,09,11.30
2012,06,01,04,10,11.30
2012,06,01,04,11,11.30
2012,06,01,04,12,11.30
2012,06,01,04,13,11.30
2012,06,01,04,14,11.20
2012,06,01,04,15,11.30
2012,06,01,04,16,11.20
2012,06,01,04,17,11.20
2012,06,01,04,18,11.20
2012,06,01,04,19,11.20
2012,06,01,04,20,11.20
2012,06,01,04,21,11.20
2012,06,01,04,22,11.20
2012,06,01,04,23,11.20
2012,06,01,04,24,11.20
2012,06,01,04,25,11.20
2012,06,01,04,26,11.20
2012,06,01,04,27,11.20
2012,06,01,04,28,11.20
2012,06,01,04,29,11.20
2012,06,01,04,30,11.20
2012,06,01,04,31,11.20
2012,06,01,04,32,11.20
2012,06,01,04,33,11.20
2012,06,01,04,34,11.20
2012,06,01,04,35,11.30
2012,06,01,04,36,11.30
2012,06,01,04,37,11.30
2012,06,01,04,38,11.30
2012,06,01,04,39,11.30
2012,06,01,04,40,11.30
2012,06,01,04,41,11.30
2012,06,01,04,42,11.30
2012,06,01,04,43,11.30
2012,06,01,04,44,11.30
2012,06,01,04,45,11.30
2012,06,01,04,46,11.30
2012,06,01,04,47,11.30
2012,06,01,04,48,11.30
2012,06,01,04,49,11.30
2012,06,01,04,50,11.30
2012,06,01,04,51,11.30
2012,06,01,04,52,11.30
2012,06,01,04,53,11.30
2012,06,01,04,54,11.30
2012,06,01,04,55,11.30
2012,06,01,04,56,11.30
2012,06,01,04,57,11.20
2012,06,01,04,58,11.20
2012,06,01,04,59,11.20
2012,06,01,05,00,11.20
2012,06,01,05,01,11.20
2012,06,01,05,02,11.20
2012,06,01,05,03,11.30
2012,06,01,05,04,11.30
2012,06,01,05,05,11.30
2012,06,01,05,06,11.30
2012,06,01,05,07,11.30
2012,06,01,05,08,11.30
2012,06,01,05,09,11.30
2012,06,01,05,10,11.30
2012,06,01,05,11,11.30
2012,06,01,05,12,11.30
2012,06,01,05,13,11.30
2012,06,01,05,14,11.30
2012,06,01,05,15,11.30
2012,06,01,05,16,11.30
2012,06,01,05,17,11.30
2012,06,01,05,18,11.30
2012,06,01,05,19,11.30
2012,06,01,05,20,11.30
2012,06,01,05,21,11.30
2012,06,01,05,22,11.30
2012,06,01,05,23,11.30
2012,06,01,05,24,11.30
2012,06,01,05,25,11.30
2012,06,01,05,26,11.30
2012,06,01,05,27,11.30
2012,06,01,05,28,11.30
2012,06,01,05,29,11.30
2012,06,01,05,30,11.30
2012,06,01,05,31,11.30
2012,06,01,05,32,11.30
2012,06,01,05,33,11.30
2012,06,01,05,34,11.30
2012,06,01,05,35,11.30
2012,06,01,05,36,11.30
2012,06,01,05,37,11.30
2012,06,01,05,38,11.30
2012,06,01,05,39,11.30
2012,06,01,05,40,11.30
2012,06,01,05,41,11.30
2012,06,01,05,42,11.30
2012,06,01,05,43,11.30
2012,06,01,05,44,11.20
2012,06,01,05,45,11.20
2012,06,01,05,46,11.20
2012,06,01,05,47,11.20
2012,06,01,05,48,11.20
2012,06,01,05,49,11.20
2012,06,01,05,50,11.20
2012,06,01,05,51,11.20
2012,06,01,05,52,11.20
2012,06,01,05,53,11.20
2012,06,01,05,54,11.20
2012,06,01,05,55,11.20
2012,06,01,05,56,11.20
2012,06,01,05,57,11.20
2012,06,01,05,58,11.20
2012,06,01,05,59,11.20
2012,06,01,06,00,11.20
2012,06,01,06,01,11.20
2012,06,01,06,02,11.30
2012,06,01,06,03,11.30
2012,06,01,06,04,11.30
2012,06,01,06,05,11.30
2012,06,01,06,06,11.30
2012,06,01,06,07,11.30
2012,06,01,06,08,11.30
2012,06,01,06,09,11.30
2012,06,01,06,10,11.30
2012,06,01,06,11,11.30
2012,06,01,06,12,11.30
2012,06,01,06,13,11.30
2012,06,01,06,14,11.40
2012,06,01,06,15,11.40
2012,06,01,06,16,11.40
2012,06,01,06,17,11.40
2012,06,01,06,18,11.40
2012,06,01,06,19,11.40
2012,06,01,06,20,11.40
2012,06,01,06,21,11.40
2012,06,01,06,22,11.40
2012,06,01,06,23,11.40
2012,06,01,06,24,11.40
2012,06,01,06,25,11.40
2012,06,01,06,26,11.50
2012,06,01,06,27,11.50
2012,06,01,06,28,11.60
2012,06,01,06,29,11.60
2012,06,01,06,30,11.70
2012,06,01,06,31,11.70
2012,06,01,06,32,11.80
2012,06,01,06,33,11.80
2012,06,01,06,34,11.90
2012,06,01,06,35,11.90
2012,06,01,06,36,11.90
2012,06,01,06,37,11.90
2012,06,01,06,38,11.90
2012,06,01,06,39,12.00
2012,06,01,06,40,12.00
2012,06,01,06,41,12.00
2012,06,01,06,42,12.00
2012,06,01,06,43,11.90
2012,06,01,06,44,11.90
2012,06,01,06,45,11.90
2012,06,01,06,46,11.90
2012,06,01,06,47,11.80
2012,06,01,06,48,11.80
2012,06,01,06,49,11.80
2012,06,01,06,50,11.80
2012,06,01,06,51,11.80
2012,06,01,06,52,11.80
2012,06,01,06,53,11.80
2012,06,01,06,54,11.80
2012,06,01,06,55,11.80
2012,06,01,06,56,11.70
2012,06,01,06,57,11.70
2012,06,01,06,58,11.70
2012,06,01,06,59,11.70
2012,06,01,07,00,11.70
2012,06,01,07,01,11.70
2012,06,01,07,02,11.70
2012,06,01,07,03,11.70
2012,06,01,07,04,11.70
2012,06,01,07,05,11.70
2012,06,01,07,06,11.70
2012,06,01,07,07,11.70
2012,06,01,07,08,11.70
2012,06,01,07,09,11.70
2012,06,01,07,10,11.70
2012,06,01,07,11,11.70
2012,06,01,07,12,11.70
2012,06,01,07,13,11.70
2012,06,01,07,14,11.70
2012,06,01,07,15,11.70
2012,06,01,07,16,11.70
2012,06,01,07,17,11.70
2012,06,01,07,18,11.70
2012,06,01,07,19,11.70
2012,06,01,07,20,11.70
2012,06,01,07,21,11.70
2012,06,01,07,22,11.70
2012,06,01,07,23,11.80
2012,06,01,07,24,11.80
2012,06,01,07,25,11.80
2012,06,01,07,26,11.80
2012,06,01,07,27,11.80
2012,06,01,07,28,11.80
2012,06,01,07,29,11.80
2012,06,01,07,30,11.90
2012,06,01,07,31,11.80
2012,06,01,07,32,11.80
2012,06,01,07,33,11.90
2012,06,01,07,34,11.90
2012,06,01,07,35,11.90
2012,06,01,07,36,11.80
2012,06,01,07,37,11.80
2012,06,01,07,38,11.80
2012,06,01,07,39,11.80
2012,06,01,07,40,11.80
2012,06,01,07,41,11.80
2012,06,01,07,42,11.80
2012,06,01,07,43,11.80
2012,06,01,07,44,11.90
2012,06,01,07,45,11.90
2012,06,01,07,46,11.90
2012,06,01,07,47,11.90
2012,06,01,07,48,12.00
2012,06,01,07,49,12.00
2012,06,01,07,50,12.00
2012,06,01,07,51,12.00
2012,06,01,07,52,12.00
2012,06,01,07,53,12.00
2012,06,01,07,54,12.10
2012,06,01,07,55,12.10
2012,06,01,07,56,12.10
2012,06,01,07,57,12.10
2012,06,01,07,58,12.10
2012,06,01,07,59,12.10
2012,06,01,08,00,12.10
2012,06,01,08,01,12.10
2012,06,01,08,02,12.10
2012,06,01,08,03,12.10
2012,06,01,08,04,12.10
2012,06,01,08,05,12.10
2012,06,01,08,06,12.20
2012,06,01,08,07,12.20
2012,06,01,08,08,12.20
2012,06,01,08,09,12.20
2012,06,01,08,10,12.20
2012,06,01,08,11,12.20
2012,06,01,08,12,12.30
2012,06,01,08,13,12.30
2012,06,01,08,14,12.30
2012,06,01,08,15,12.30
2012,06,01,08,16,12.30
2012,06,01,08,17,12.30
2012,06,01,08,18,12.30
2012,06,01,08,19,12.30
2012,06,01,08,20,12.30
2012,06,01,08,21,12.30
2012,06,01,08,22,12.30
2012,06,01,08,23,12.30
2012,06,01,08,24,12.30
2012,06,01,08,25,12.30
2012,06,01,08,26,12.30
2012,06,01,08,27,12.30
2012,06,01,08,28,12.30
2012,06,01,08,29,12.30
2012,06,01,08,30,12.30
2012,06,01,08,31,12.40
2012,06,01,08,32,12.40
2012,06,01,08,33,12.40
2012,06,01,08,34,12.40
2012,06,01,08,35,12.40
2012,06,01,08,36,12.40
2012,06,01,08,37,12.40
2012,06,01,08,38,12.40
2012,06,01,08,39,12.40
2012,06,01,08,40,12.40
2012,06,01,08,41,12.40
2012,06,01,08,42,12.40
2012,06,01,08,43,12.50
2012,06,01,08,44,12.50
2012,06,01,08,45,12.50
2012,06,01,08,46,12.50
2012,06,01,08,47,12.50
2012,06,01,08,48,12.50
2012,06,01,08,49,12.50
2012,06,01,08,50,12.50
2012,06,01,08,51,12.50
2012,06,01,08,52,12.60
2012,06,01,08,53,12.60
2012,06,01,08,54,12.60
2012,06,01,08,55,12.60
2012,06,01,08,56,12.60
2012,06,01,08,57,12.60
2012,06,01,08,58,12.60
2012,06,01,08,59,12.60
2012,06,01,09,00,12.60
2012,06,01,09,01,12.60
2012,06,01,09,02,12.60
2012,06,01,09,03,12.60
2012,06,01,09,04,12.60
2012,06,01,09,05,12.60
2012,06,01,09,06,12.60
2012,06,01,09,07,12.60
2012,06,01,09,08,12.60
2012,06,01,09,09,12.60
2012,06,01,09,10,12.60
2012,06,01,09,11,12.60
2012,06,01,09,12,12.60
2012,06,01,09,13,12.60
2012,06,01,09,14,12.60
2012,06,01,09,15,12.60
2012,06,01,09,16,12.60
2012,06,01,09,17,12.50
2012,06,01,09,18,12.50
2012,06,01,09,19,12.50
2012,06,01,09,20,12.40
2012,06,01,09,21,12.40
2012,06,01,09,22,12.40
2012,06,01,09,23,12.40
2012,06,01,09,24,12.40
2012,06,01,09,25,12.40
2012,06,01,09,26,12.40
2012,06,01,09,27,12.40
2012,06,01,09,28,12.40
2012,06,01,09,29,12.40
2012,06,01,09,30,12.40
2012,06,01,09,31,12.40
2012,06,01,09,32,12.40
2012,06,01,09,33,12.40
2012,06,01,09,34,12.40
2012,06,01,09,35,12.40
2012,06,01,09,36,12.40
2012,06,01,09,37,12.40
2012,06,01,09,38,12.40
2012,06,01,09,39,12.40
2012,06,01,09,40,12.40
2012,06,01,09,41,12.40
2012,06,01,09,42,12.40
2012,06,01,09,43,12.40
2012,06,01,09,44,12.50
2012,06,01,09,45,12.50
2012,06,01,09,46,12.40
2012,06,01,09,47,12.40
2012,06,01,09,48,12.40
2012,06,01,09,49,12.40
2012,06,01,09,50,12.40
2012,06,01,09,51,12.40
2012,06,01,09,52,12.40
2012,06,01,09,53,12.40
2012,06,01,09,54,12.40
2012,06,01,09,55,12.40
2012,06,01,09,56,12.40
2012,06,01,09,57,12.40
2012,06,01,09,58,12.50
2012,06,01,09,59,12.50
2012,06,01,10,00,12.40
2012,06,01,10,01,12.40
2012,06,01,10,02,12.40
2012,06,01,10,03,12.40
2012,06,01,10,04,12.40
2012,06,01,10,05,12.40
2012,06,01,10,06,12.40
2012,06,01,10,07,12.40
2012,06,01,10,08,12.30
2012,06,01,10,09,12.30
2012,06,01,10,10,12.30
2012,06,01,10,11,12.30
2012,06,01,10,12,12.30
2012,06,01,10,13,12.30
2012,06,01,10,14,12.30
2012,06,01,10,15,12.30
2012,06,01,10,16,12.20
2012,06,01,10,17,12.20
2012,06,01,10,18,12.20
2012,06,01,10,19,12.20
2012,06,01,10,20,12.20
2012,06,01,10,21,12.20
2012,06,01,10,22,12.20
2012,06,01,10,23,12.20
2012,06,01,10,24,12.20
2012,06,01,10,25,12.20
2012,06,01,10,26,12.20
2012,06,01,10,27,12.20
2012,06,01,10,28,12.20
2012,06,01,10,29,12.20
2012,06,01,10,30,12.10
2012,06,01,10,31,12.10
2012,06,01,10,32,12.10
2012,06,01,10,33,12.10
2012,06,01,10,34,12.10
2012,06,01,10,35,12.10
2012,06,01,10,36,12.00
2012,06,01,10,37,12.00
2012,06,01,10,38,11.90
2012,06,01,10,39,11.90
2012,06,01,10,40,11.90
2012,06,01,10,41,11.90
2012,06,01,10,42,11.90
2012,06,01,10,43,11.90
2012,06,01,10,44,11.80
2012,06,01,10,45,11.80
2012,06,01,10,46,11.80
2012,06,01,10,47,11.80
2012,06,01,10,48,11.80
2012,06,01,10,49,11.80
2012,06,01,10,50,11.80
2012,06,01,10,51,11.80
2012,06,01,10,52,11.70
2012,06,01,10,53,11.80
2012,06,01,10,54,11.80
2012,06,01,10,55,11.70
2012,06,01,10,56,11.70
2012,06,01,10,57,11.70
2012,06,01,10,58,11.70
2012,06,01,10,59,11.70
2012,06,01,11,00,11.70
2012,06,01,11,01,11.70
2012,06,01,11,02,11.70
2012,06,01,11,03,11.70
2012,06,01,11,04,11.70
2012,06,01,11,05,11.70
2012,06,01,11,06,11.60
2012,06,01,11,07,11.60
2012,06,01,11,08,11.60
2012,06,01,11,09,11.60
2012,06,01,11,10,11.60
2012,06,01,11,11,11.60
2012,06,01,11,12,11.60
2012,06,01,11,13,11.60
2012,06,01,11,14,11.50
2012,06,01,11,15,11.50
2012,06,01,11,16,11.60
2012,06,01,11,17,11.50
2012,06,01,11,18,11.50
2012,06,01,11,19,11.50
2012,06,01,11,20,11.50
2012,06,01,11,21,11.50
2012,06,01,11,22,11.50
2012,06,01,11,23,11.50
2012,06,01,11,24,11.50
2012,06,01,11,25,11.50
2012,06,01,11,26,11.50
2012,06,01,11,27,11.50
2012,06,01,11,28,11.50
2012,06,01,11,29,11.50
2012,06,01,11,30,11.50
2012,06,01,11,31,11.50
2012,06,01,11,32,11.50
2012,06,01,11,33,11.50
2012,06,01,11,34,11.60
2012,06,01,11,35,11.60
2012,06,01,11,36,11.60
2012,06,01,11,37,11.60
2012,06,01,11,38,11.60
2012,06,01,11,39,11.50
2012,06,01,11,40,11.50
2012,06,01,11,41,11.50
2012,06,01,11,42,11.40
2012,06,01,11,43,11.40
2012,06,01,11,44,11.40
2012,06,01,11,45,11.40
2012,06,01,11,46,11.30
2012,06,01,11,47,11.40
2012,06,01,11,48,11.30
2012,06,01,11,49,11.30
2012,06,01,11,50,11.30
2012,06,01,11,51,11.30
2012,06,01,11,52,11.30
2012,06,01,11,53,11.30
2012,06,01,11,54,11.40
2012,06,01,11,55,11.40
2012,06,01,11,56,11.40
2012,06,01,11,57,11.40
2012,06,01,11,58,11.40
2012,06,01,11,59,11.40
2012,06,01,12,00,11.40
2012,06,01,12,01,11.40
2012,06,01,12,02,11.40
2012,06,01,12,03,11.40
2012,06,01,12,04,11.50
2012,06,01,12,05,11.50
2012,06,01,12,06,11.50
2012,06,01,12,07,11.40
2012,06,01,12,08,11.40
2012,06,01,12,09,11.40
2012,06,01,12,10,11.40
2012,06,01,12,11,11.30
2012,06,01,12,12,11.30
2012,06,01,12,13,11.30
2012,06,01,12,14,11.30
2012,06,01,12,15,11.30
2012,06,01,12,16,11.30
2012,06,01,12,17,11.30
2012,06,01,12,18,11.30
2012,06,01,12,19,11.30
2012,06,01,12,20,11.30
2012,06,01,12,21,11.30
2012,06,01,12,22,11.30
2012,06,01,12,23,11.30
2012,06,01,12,24,11.30
2012,06,01,12,25,11.30
2012,06,01,12,26,11.30
2012,06,01,12,27,11.30
2012,06,01,12,28,11.30
2012,06,01,12,29,11.40
2012,06,01,12,30,11.40
2012,06,01,12,31,11.40
2012,06,01,12,32,11.40
2012,06,01,12,33,11.40
2012,06,01,12,34,11.40
2012,06,01,12,35,11.40
2012,06,01,12,36,11.40
2012,06,01,12,37,11.40
2012,06,01,12,38,11.50
2012,06,01,12,39,11.60
2012,06,01,12,40,11.60
2012,06,01,12,41,11.60
2012,06,01,12,42,11.60
2012,06,01,12,43,11.50
2012,06,01,12,44,11.40
2012,06,01,12,45,11.40
2012,06,01,12,46,11.30
2012,06,01,12,47,11.30
2012,06,01,12,48,11.30
2012,06,01,12,49,11.30
2012,06,01,12,50,11.30
2012,06,01,12,51,11.30
2012,06,01,12,52,11.30
2012,06,01,12,53,11.30
2012,06,01,12,54,11.30
2012,06,01,12,55,11.30
2012,06,01,12,56,11.30
2012,06,01,12,57,11.20
2012,06,01,12,58,11.20
2012,06,01,12,59,11.20
2012,06,01,13,00,11.20
2012,06,01,13,01,11.20
2012,06,01,13,02,11.20
2012,06,01,13,03,11.30
2012,06,01,13,04,11.30
2012,06,01,13,05,11.30
2012,06,01,13,06,11.30
2012,06,01,13,07,11.30
2012,06,01,13,08,11.20
2012,06,01,13,09,11.20
2012,06,01,13,10,11.20
2012,06,01,13,11,11.20
2012,06,01,13,12,11.20
2012,06,01,13,13,11.20
2012,06,01,13,14,11.20
2012,06,01,13,15,11.20
2012,06,01,13,16,11.20
2012,06,01,13,17,11.10
2012,06,01,13,18,11.10
2012,06,01,13,19,11.20
2012,06,01,13,20,11.10
2012,06,01,13,21,11.10
2012,06,01,13,22,11.20
2012,06,01,13,23,11.20
2012,06,01,13,24,11.20
2012,06,01,13,25,11.20
2012,06,01,13,26,11.20
2012,06,01,13,27,11.20
2012,06,01,13,28,11.20
2012,06,01,13,29,11.10
2012,06,01,13,30,11.10
2012,06,01,13,31,11.00
2012,06,01,13,32,11.00
2012,06,01,13,33,11.00
2012,06,01,13,34,11.10
2012,06,01,13,35,11.10
2012,06,01,13,36,11.20
2012,06,01,13,37,11.20
2012,06,01,13,38,11.20
2012,06,01,13,39,11.30
2012,06,01,13,40,11.40
2012,06,01,13,41,11.40
2012,06,01,13,42,11.40
2012,06,01,13,43,11.50
2012,06,01,13,44,11.50
2012,06,01,13,45,11.50
2012,06,01,13,46,11.60
2012,06,01,13,47,11.60
2012,06,01,13,48,11.70
2012,06,01,13,49,11.80
2012,06,01,13,50,11.90
2012,06,01,13,51,11.90
2012,06,01,13,52,12.00
2012,06,01,13,53,12.10
2012,06,01,13,54,12.20
2012,06,01,13,55,12.10
2012,06,01,13,56,12.10
2012,06,01,13,57,12.10
2012,06,01,13,58,12.10
2012,06,01,13,59,12.10
2012,06,01,14,00,12.10
2012,06,01,14,01,12.00
2012,06,01,14,02,12.00
2012,06,01,14,03,12.00
2012,06,01,14,04,12.00
2012,06,01,14,05,12.20
2012,06,01,14,06,12.30
2012,06,01,14,07,12.40
2012,06,01,14,08,12.30
2012,06,01,14,09,12.20
2012,06,01,14,10,12.20
2012,06,01,14,11,12.20
2012,06,01,14,12,12.20
2012,06,01,14,13,12.10
2012,06,01,14,14,12.00
2012,06,01,14,15,12.00
2012,06,01,14,16,11.90
2012,06,01,14,17,11.90
2012,06,01,14,18,11.90
2012,06,01,14,19,12.00
2012,06,01,14,20,12.10
2012,06,01,14,21,12.10
2012,06,01,14,22,12.10
2012,06,01,14,23,12.20
2012,06,01,14,24,12.20
2012,06,01,14,25,12.20
2012,06,01,14,26,12.30
2012,06,01,14,27,12.40
2012,06,01,14,28,12.40
2012,06,01,14,29,12.40
2012,06,01,14,30,12.40
2012,06,01,14,31,12.40
2012,06,01,14,32,12.40
2012,06,01,14,33,12.40
2012,06,01,14,34,12.50
2012,06,01,14,35,12.50
2012,06,01,14,36,12.60
2012,06,01,14,37,12.60
2012,06,01,14,38,12.70
2012,06,01,14,39,12.70
2012,06,01,14,40,12.70
2012,06,01,14,41,12.60
2012,06,01,14,42,12.60
2012,06,01,14,43,12.60
2012,06,01,14,44,12.50
2012,06,01,14,45,12.40
2012,06,01,14,46,12.40
2012,06,01,14,47,12.40
2012,06,01,14,48,12.40
2012,06,01,14,49,12.40
2012,06,01,14,50,12.40
2012,06,01,14,51,12.40
2012,06,01,14,52,12.40
2012,06,01,14,53,12.40
2012,06,01,14,54,12.30
2012,06,01,14,55,12.30
2012,06,01,14,56,12.30
2012,06,01,14,57,12.30
2012,06,01,14,58,12.30
2012,06,01,14,59,12.30
2012,06,01,15,00,12.40
2012,06,01,15,01,12.30
2012,06,01,15,02,12.40
2012,06,01,15,03,12.30
2012,06,01,15,04,12.30
2012,06,01,15,05,12.20
2012,06,01,15,06,12.30
2012,06,01,15,07,12.30
2012,06,01,15,08,12.40
2012,06,01,15,09,12.40
2012,06,01,15,10,12.40
2012,06,01,15,11,12.40
2012,06,01,15,12,12.40
2012,06,01,15,13,12.50
2012,06,01,15,14,12.50
2012,06,01,15,15,12.60
2012,06,01,15,16,12.50
2012,06,01,15,17,12.50
2012,06,01,15,18,12.50
2012,06,01,15,19,12.50
2012,06,01,15,20,12.40
2012,06,01,15,21,12.40
2012,06,01,15,22,12.40
2012,06,01,15,23,12.40
2012,06,01,15,24,12.40
2012,06,01,15,25,12.30
2012,06,01,15,26,12.30
2012,06,01,15,27,12.20
2012,06,01,15,28,12.20
2012,06,01,15,29,12.30
2012,06,01,15,30,12.40
2012,06,01,15,31,12.40
2012,06,01,15,32,12.50
2012,06,01,15,33,12.60
2012,06,01,15,34,12.70
2012,06,01,15,35,12.80
2012,06,01,15,36,12.90
2012,06,01,15,37,13.00
2012,06,01,15,38,13.00
2012,06,01,15,39,12.90
2012,06,01,15,40,12.80
2012,06,01,15,41,12.80
2012,06,01,15,42,12.80
2012,06,01,15,43,12.80
2012,06,01,15,44,12.90
2012,06,01,15,45,12.90
2012,06,01,15,46,12.90
2012,06,01,15,47,12.90
2012,06,01,15,48,12.90
2012,06,01,15,49,12.90
2012,06,01,15,50,12.90
2012,06,01,15,51,12.90
2012,06,01,15,52,12.90
2012,06,01,15,53,12.90
2012,06,01,15,54,13.00
2012,06,01,15,55,13.00
2012,06,01,15,56,13.10
2012,06,01,15,57,13.10
2012,06,01,15,58,13.10
2012,06,01,15,59,13.00
2012,06,01,16,00,12.90
2012,06,01,16,01,12.80
2012,06,01,16,02,12.70
2012,06,01,16,03,12.70
2012,06,01,16,04,12.70
2012,06,01,16,05,12.70
2012,06,01,16,06,12.70
2012,06,01,16,07,12.70
2012,06,01,16,08,12.70
2012,06,01,16,09,12.70
2012,06,01,16,10,12.70
2012,06,01,16,11,12.70
2012,06,01,16,12,12.70
2012,06,01,16,13,12.80
2012,06,01,16,14,12.80
2012,06,01,16,15,12.80
2012,06,01,16,16,12.80
2012,06,01,16,17,12.80
2012,06,01,16,18,12.80
2012,06,01,16,19,12.80
2012,06,01,16,20,12.70
2012,06,01,16,21,12.60
2012,06,01,16,22,12.50
2012,06,01,16,23,12.40
2012,06,01,16,24,12.30
2012,06,01,16,25,12.30
2012,06,01,16,26,12.30
2012,06,01,16,27,12.30
2012,06,01,16,28,12.30
2012,06,01,16,29,12.30
2012,06,01,16,30,12.30
2012,06,01,16,31,12.30
2012,06,01,16,32,12.40
2012,06,01,16,33,12.40
2012,06,01,16,34,12.40
2012,06,01,16,35,12.40
2012,06,01,16,36,12.40
2012,06,01,16,37,12.40
2012,06,01,16,38,12.40
2012,06,01,16,39,12.50
2012,06,01,16,40,12.50
2012,06,01,16,41,12.50
2012,06,01,16,42,12.60
2012,06,01,16,43,12.60
2012,06,01,16,44,12.60
2012,06,01,16,45,12.70
2012,06,01,16,46,12.70
2012,06,01,16,47,12.70
2012,06,01,16,48,12.70
2012,06,01,16,49,12.70
2012,06,01,16,50,12.70
2012,06,01,16,51,12.70
2012,06,01,16,52,12.70
2012,06,01,16,53,12.80
2012,06,01,16,54,12.70
2012,06,01,16,55,12.70
2012,06,01,16,56,12.70
2012,06,01,16,57,12.60
2012,06,01,16,58,12.60
2012,06,01,16,59,12.50
2012,06,01,17,00,12.40
2012,06,01,17,01,12.30
2012,06,01,17,02,12.20
2012,06,01,17,03,12.10
2012,06,01,17,04,12.00
2012,06,01,17,05,11.90
2012,06,01,17,06,11.80
2012,06,01,17,07,11.80
2012,06,01,17,08,11.70
2012,06,01,17,09,11.70
2012,06,01,17,10,11.70
2012,06,01,17,11,11.70
2012,06,01,17,12,11.70
2012,06,01,17,13,11.70
2012,06,01,17,14,11.70
2012,06,01,17,15,11.60
2012,06,01,17,16,11.60
2012,06,01,17,17,11.60
2012,06,01,17,18,11.60
2012,06,01,17,19,11.60
2012,06,01,17,20,11.60
2012,06,01,17,21,11.70
2012,06,01,17,22,11.70
2012,06,01,17,23,11.60